Wellsville, NY

11:53 AM EST on December 11, 2019 (GMT -0500)
Wellsville Municipal-Tarantine

Weather History for KELZ - August, 2019

Change the Weather History Date:

Wednesday, August 7, 2019

  Actual Average (KDSV) Record (KDSV)
Temperature  
Mean Temperature 68 °F -  
Max Temperature 73 °F 80 °F 96 °F (2001)
Min Temperature 62 °F 57 °F 46 °F (1948)
Cooling Degree Days 2    
Growing Degree Days 18 (Base 50)    
Moisture  
Dew Point 63 °F    
Average Humidity 94    
Maximum Humidity 100    
Minimum Humidity 76    
Precipitation  
Precipitation 0.16 in - - ()
Sea Level Pressure  
Sea Level Pressure 29.83 in    
Wind  
Wind Speed 4 mph ()    
Max Wind Speed 12 mph    
Max Gust Speed -    
Visibility 6.2 miles    
Events Fog , Rain    
Averages and records for this station are not official NWS values.
T = Trace of Precipitation, MM = Missing Value Source: Averaged Metar Reports

Daily Weather History Graph

Daily Weather History Graph

Search for Another Location

Airport or City:

Astronomy

Aug. 07, 2019 Rise Set
Actual Time 6:11 AM EDT 8:23 PM EDT
Civil Twilight 5:40 AM EDT 8:54 PM EDT
Nautical Twilight 5:01 AM EDT 9:32 PM EDT
Astronomical Twilight 4:19 AM EDT 10:14 PM EDT
Moon 1:49 PM EDT (8/7) 12:01 AM EDT (8/7)
Length of Visible Light 15h 14m
Length of Day
14h 12m
Waxing Crescent, 49% of the Moon is Illuminated
Aug 7
Waxing Crescent
Aug 7
First Quarter
Aug 15
Full
Aug 23
Last Quarter
Aug 30
New

Hourly Weather History & Observations

Time (EDT) Temp. Dew Point Humidity Pressure Visibility Wind Dir Wind Speed Gust Speed Precip Events Conditions
12:56 AM 64.0 °F 62.1 °F 93% 29.84 in 9.0 mi Calm Calm - 0.00 in Rain Light Rain
1:56 AM 63.0 °F 62.1 °F 97% 29.83 in 10.0 mi South 4.6 mph - 0.00 in   Partly Cloudy
2:56 AM 63.0 °F 62.1 °F 97% 29.82 in 10.0 mi South 5.8 mph - N/A   Mostly Cloudy
3:56 AM 63.0 °F 62.1 °F 97% 29.82 in 10.0 mi Calm Calm - 0.02 in Rain Light Rain
4:56 AM 62.1 °F 62.1 °F 100% 29.81 in 3.0 mi NNE 3.5 mph - 0.02 in   Mostly Cloudy
5:17 AM 62.1 °F 62.1 °F 100% 29.84 in 2.5 mi Calm Calm - N/A   Overcast
5:23 AM 62.1 °F 62.1 °F 100% 29.84 in 5.0 mi Calm Calm - N/A   Overcast
5:28 AM 62.1 °F 62.1 °F 100% 29.84 in 1.5 mi Calm Calm - N/A   Overcast
5:48 AM 62.1 °F 62.1 °F 100% 29.84 in 0.8 mi Calm Calm - N/A   Overcast
5:56 AM 62.1 °F 62.1 °F 100% 29.82 in 0.2 mi Calm Calm - N/A Fog Fog
6:35 AM 62.1 °F 62.1 °F 100% 29.85 in 1.0 mi SE 3.5 mph - N/A   Overcast
6:40 AM 62.1 °F 62.1 °F 100% 29.85 in 3.0 mi SE 4.6 mph - N/A   Overcast
6:54 AM 62.6 °F 62.6 °F 100% 29.85 in 3.0 mi SSE 4.6 mph - N/A   Overcast
6:56 AM 62.1 °F 62.1 °F 100% 29.82 in 3.0 mi SSE 3.5 mph - N/A   Overcast
7:21 AM 63.0 °F 62.1 °F 97% 29.85 in 4.0 mi Variable 6.9 mph - 0.00 in Rain Light Rain
7:31 AM 63.0 °F 62.1 °F 97% 29.85 in 8.0 mi South 5.8 mph - 0.00 in   Overcast
7:56 AM 64.0 °F 62.1 °F 93% 29.82 in 7.0 mi South 5.8 mph - 0.00 in   Overcast
8:04 AM 64.0 °F 63.0 °F 96% 29.85 in 7.0 mi Variable 5.8 mph - N/A   Overcast
8:56 AM 64.9 °F 63.0 °F 93% 29.82 in 7.0 mi South 4.6 mph - N/A   Overcast
9:44 AM 64.9 °F 63.0 °F 93% 29.84 in 3.0 mi Variable 3.5 mph - 0.01 in Rain Light Rain
9:56 AM 64.9 °F 63.0 °F 93% 29.81 in 4.0 mi South 4.6 mph - 0.02 in Rain Light Rain
10:56 AM 66.0 °F 64.0 °F 93% 29.81 in 9.0 mi SSW 8.1 mph - 0.00 in Rain Light Rain
11:36 AM 66.0 °F 64.0 °F 93% 29.84 in 4.0 mi SW 8.1 mph - 0.00 in   Overcast
11:56 AM 68.0 °F 66.0 °F 93% 29.81 in 3.0 mi WSW 10.4 mph - 0.00 in Rain Light Rain
12:01 PM 66.0 °F 64.9 °F 96% 29.84 in 1.5 mi West 9.2 mph - 0.01 in Rain Light Rain
12:04 PM 66.0 °F 64.9 °F 96% 29.84 in 0.8 mi WNW 10.4 mph - 0.05 in Rain Heavy Rain
12:16 PM 64.0 °F 63.0 °F 96% 29.85 in 2.0 mi NW 11.5 mph - 0.06 in Rain Light Rain
12:26 PM 64.0 °F 63.0 °F 96% 29.85 in 6.0 mi WNW 11.5 mph - 0.06 in Rain Light Rain
12:34 PM 64.9 °F 64.0 °F 97% 29.85 in 10.0 mi WNW 10.4 mph - 0.06 in   Overcast
12:56 PM 66.0 °F 64.0 °F 93% 29.83 in 10.0 mi WNW 9.2 mph - 0.06 in   Overcast
1:09 PM 66.0 °F 64.9 °F 96% 29.86 in 10.0 mi West 8.1 mph - N/A   Overcast
1:56 PM 69.1 °F 64.0 °F 84% 29.83 in 10.0 mi West 9.2 mph - N/A   Mostly Cloudy
2:56 PM 70.0 °F 64.9 °F 84% 29.82 in 10.0 mi Variable 4.6 mph - 0.01 in   Partly Cloudy
3:28 PM 73.0 °F 64.9 °F 76% 29.84 in 10.0 mi West 9.2 mph - N/A   Mostly Cloudy
3:56 PM 72.0 °F 64.0 °F 76% 29.80 in 10.0 mi West 11.5 mph - N/A   Mostly Cloudy
4:21 PM 66.9 °F 64.0 °F 90% 29.84 in 1.8 mi West 8.1 mph - 0.03 in Rain Rain
4:29 PM 66.9 °F 64.0 °F 90% 29.83 in 3.0 mi West 10.4 mph - 0.03 in Rain Light Rain
4:56 PM 68.0 °F 63.0 °F 84% 29.81 in 10.0 mi West 11.5 mph - 0.03 in   Mostly Cloudy
5:56 PM 66.9 °F 62.1 °F 84% 29.81 in 10.0 mi West 9.2 mph - N/A   Overcast
6:56 PM 66.9 °F 63.0 °F 87% 29.81 in 10.0 mi West 4.6 mph - N/A   Partly Cloudy
8:56 PM 64.9 °F 63.0 °F 93% 29.83 in 10.0 mi West 4.6 mph - N/A   Clear
9:56 PM 63.0 °F 62.1 °F 97% 29.84 in 10.0 mi West 4.6 mph - N/A   Clear
10:56 PM 62.1 °F 62.1 °F 100% 29.83 in 9.0 mi West 4.6 mph - N/A   Clear
11:56 PM 62.1 °F 61.0 °F 96% 29.81 in 10.0 mi WSW 3.5 mph - N/A   Clear